Weather History for Milwaukee, WI

Change the Weather History Date:

Monday, February 18, 2013

  Actual Average Record
Temperature  
Mean Temperature 39 °F 27 °F  
Max Temperature 48 °F 33 °F 57 °F (1877)
Min Temperature 29 °F 20 °F -17 °F (1936)
Degree Days  
Heating Degree Days 26 38  
Month to date heating degree days 759 727  
Since 1 July heating degree days 4344 4612  
Cooling Degree Days 0 0  
Month to date cooling degree days 0 0  
Year to date cooling degree days 0 0  
Moisture  
Dew Point 33 °F    
Average Humidity 80    
Maximum Humidity 100    
Minimum Humidity 59    
Precipitation  
Precipitation 0.40 in 0.07 in 0.83 in (1962)
Month to date precipitation 1.73 1.01  
Year to date precipitation 4.90 2.77  
Snow  
Snow T in 0.40 in 9.50 in (1962)
Month to date snowfall 10.5 6.4  
Since 1 July snowfall 21.9 34.4  
Snow Depth T in    
Sea Level Pressure  
Sea Level Pressure 29.56 in    
Wind  
Wind Speed 12 mph (SSW)    
Max Wind Speed 22 mph    
Max Gust Speed 26 mph    
Visibility 6 miles    
Events Rain , Snow    
T = Trace of Precipitation, MM = Missing Value Source: NWS Daily Summary

Daily Weather History Graph

Daily Weather History Graph

Search for Another Location

Airport:

Trip Planner

Search our weather history database for the weather conditions in past years. The results will help you decide how hot, cold, wet, or windy it might be!

Date:

Astronomy

Feb. 18, 2013 Rise Set
Actual Time 6:44 AM CST 5:27 PM CST
Civil Twilight 6:15 AM CST 5:56 PM CST
Nautical Twilight 5:42 AM CST 6:29 PM CST
Astronomical Twilight 5:09 AM CST 7:02 PM CST
Moon 11:08 AM CST (2/18) 1:27 AM CST (2/18)
Length of Visible Light 11h 40m
Length of Day
10h 42m
First Quarter, 58% of the Moon is Illuminated
Feb 18
First Quarter
Feb 25
Full
Mar 4
Last Quarter
Mar 11
New
Mar 19
First Quarter

Hourly Weather History & Observations

Time (CST) Temp. Windchill Dew Point Humidity Pressure Visibility Wind Dir Wind Speed Gust Speed Precip Events Conditions
12:52 AM 28.9 °F 18.2 °F 17.1 °F 61% 29.99 in 10.0 mi SSE 13.8 mph - N/A   Overcast
1:52 AM 28.9 °F 18.6 °F 18.0 °F 64% 29.96 in 10.0 mi SSE 12.7 mph - N/A   Mostly Cloudy
2:52 AM 30.0 °F 18.3 °F 19.0 °F 64% 29.91 in 10.0 mi SSE 17.3 mph - N/A   Mostly Cloudy
3:52 AM 28.9 °F 18.2 °F 19.0 °F 67% 29.87 in 10.0 mi SSE 13.8 mph - N/A   Scattered Clouds
4:52 AM 30.0 °F 18.7 °F 19.0 °F 64% 29.83 in 10.0 mi South 16.1 mph - N/A   Partly Cloudy
5:52 AM 30.0 °F 19.1 °F 19.9 °F 66% 29.80 in 10.0 mi South 15.0 mph 21.9 mph N/A   Mostly Cloudy
6:52 AM 30.0 °F 20.0 °F 21.0 °F 69% 29.77 in 10.0 mi South 12.7 mph - N/A   Mostly Cloudy
7:52 AM 30.2 °F 21.9 °F 21.2 °F 69% 29.73 in 10.0 mi South 9.2 mph - N/A   Overcast
8:52 AM 34.0 °F 25.5 °F 21.9 °F 61% 29.74 in 10.0 mi South 11.5 mph - N/A   Overcast
9:52 AM 37.0 °F 28.9 °F 25.0 °F 62% 29.71 in 10.0 mi South 12.7 mph - N/A   Overcast
10:52 AM 39.9 °F 32.1 °F 27.0 °F 60% 29.69 in 10.0 mi South 13.8 mph - N/A   Overcast
11:52 AM 43.0 °F 36.4 °F 30.0 °F 60% 29.66 in 10.0 mi SSW 12.7 mph 18.4 mph N/A   Overcast
12:52 PM 46.9 °F - 33.1 °F 59% 29.62 in 10.0 mi South 13.8 mph 24.2 mph N/A   Overcast
1:52 PM 46.9 °F - 35.1 °F 63% 29.60 in 10.0 mi South 8.1 mph - N/A   Overcast
2:52 PM 46.9 °F - 37.0 °F 68% 29.58 in 10.0 mi South 11.5 mph - N/A   Overcast
3:52 PM 46.9 °F - 37.9 °F 71% 29.55 in 8.0 mi South 11.5 mph - 0.00 in Rain Light Rain
4:52 PM 45.0 °F 40.6 °F 39.0 °F 80% 29.52 in 10.0 mi South 8.1 mph - 0.00 in   Overcast
5:36 PM 42.8 °F 38.6 °F 37.4 °F 81% 29.48 in 7.0 mi SE 6.9 mph - 0.00 in Rain Light Rain
5:52 PM 44.1 °F 38.6 °F 41.0 °F 89% 29.49 in 5.0 mi SSE 10.4 mph - 0.00 in Rain Light Rain
6:39 PM 42.8 °F 38.0 °F 42.8 °F 100% 29.45 in 3.0 mi South 8.1 mph - 0.06 in Rain Light Rain
6:52 PM 42.8 °F 38.6 °F 42.8 °F 100% 29.45 in 4.0 mi South 6.9 mph - N/A Rain Light Rain
7:04 PM 42.8 °F 39.3 °F 42.8 °F 100% 29.44 in 2.5 mi South 5.8 mph - 0.01 in Rain Light Rain
7:20 PM 42.8 °F 39.3 °F 42.8 °F 100% 29.44 in 1.8 mi SSW 5.8 mph - 0.03 in Rain Light Rain
7:34 PM 42.8 °F 39.3 °F 42.8 °F 100% 29.43 in 1.8 mi SSW 5.8 mph - 0.07 in Rain Rain
7:42 PM 42.8 °F 38.0 °F 42.8 °F 100% 29.43 in 1.5 mi South 8.1 mph - N/A Rain Rain
7:52 PM 43.0 °F 38.8 °F 42.1 °F 97% 29.44 in 1.5 mi South 6.9 mph - 0.13 in Rain Rain
8:00 PM 42.8 °F 40.1 °F 42.8 °F 100% 29.41 in 1.0 mi SSW 4.6 mph - 0.02 in Rain Rain
8:25 PM 44.6 °F 39.2 °F 42.8 °F 93% 29.40 in 2.0 mi South 10.4 mph 18.4 mph 0.07 in Rain Rain
8:30 PM 44.6 °F 38.1 °F 42.8 °F 93% 29.39 in 4.0 mi South 13.8 mph 18.4 mph 0.09 in Rain Rain
8:43 PM 42.8 °F 36.2 °F 39.2 °F 87% 29.39 in 4.0 mi WNW 12.7 mph 26.5 mph 0.14 in Rain Rain
8:47 PM 42.8 °F 35.1 °F 39.2 °F 87% 29.39 in 4.0 mi WNW 16.1 mph 26.5 mph 0.15 in Rain Rain
8:52 PM 42.1 °F 33.9 °F 39.9 °F 92% 29.41 in 3.0 mi WNW 17.3 mph 23.0 mph 0.17 in Rain Rain
8:57 PM 41.0 °F 33.9 °F 39.2 °F 93% 29.40 in 4.0 mi WNW 12.7 mph 23.0 mph 0.02 in Rain Light Rain
9:11 PM 39.2 °F 31.6 °F 37.4 °F 93% 29.39 in 6.0 mi NW 12.7 mph 21.9 mph 0.02 in Rain Light Rain
9:32 PM 37.4 °F 29.3 °F 35.6 °F 93% 29.38 in 5.0 mi NW 12.7 mph - 0.03 in Rain Light Rain
9:52 PM 36.0 °F 26.7 °F 34.0 °F 93% 29.41 in 6.0 mi WNW 15.0 mph 21.9 mph 0.03 in Rain Light Rain
10:52 PM 34.0 °F 24.2 °F 32.0 °F 92% 29.44 in 4.0 mi WNW 15.0 mph 23.0 mph 0.00 in Snow Light Snow
11:01 PM 33.8 °F 23.9 °F 32.0 °F 93% 29.44 in 4.0 mi West 15.0 mph 25.3 mph 0.00 in Snow Light Snow
11:05 PM 33.8 °F 24.3 °F 32.0 °F 93% 29.44 in 4.0 mi West 13.8 mph 25.3 mph 0.00 in Snow Light Snow
11:12 PM 33.8 °F 23.9 °F 32.0 °F 93% 29.44 in 3.0 mi WNW 15.0 mph 21.9 mph 0.00 in Snow Light Snow
11:28 PM 33.8 °F 23.5 °F 32.0 °F 93% 29.44 in 3.0 mi West 16.1 mph 25.3 mph 0.00 in Snow Light Snow
11:43 PM 33.8 °F 24.8 °F 32.0 °F 93% 29.45 in 5.0 mi West 12.7 mph - 0.00 in Snow Light Snow
11:52 PM 34.0 °F 25.5 °F 32.0 °F 92% 29.47 in 4.0 mi West 11.5 mph - 0.00 in Snow Light Snow